CAPE
0 0 0 0 0 0 0 0 0 0 0 0 0 0 0 0 0 0 0 0 0 0
0 0 0 0 0 0 0 0 0 0 0 0 0 0 0 0 0 0 0 0 0 0
0 0 0 0 0 0 0 0 0 0 0 0 0 0 0 0 0 0 0 0 0 0
0 0 0 0 0 0 0 0 0 0 0 0 0 0 0 0 0 0 0 0 0 0
0 0 0 0 0 0 0 0 0 0 0 0 0 0 0 0 0 0 0 0 0 0
0 0 0 0 0 0 0 0 0 0 0 0 0 0 0 0 0 0 0 0 0 0
0 0 0 0 0 0 0 0 0 0 0 0 0 0 0 0 0 0 0 0 0 0
0 0 0 0 0 0 0 0 0 0 0 0 0 0 0 0 0 0 0 0 0 0
0 0 0 0 0 0 0 0 0 0 0 0 0 0 0 0 0 0 0 0 0 0
0 0 0 0 0 0 0 0 0 0 0 0 0 0 0 0 0 0 0 0 0 0
0 0 0 0 0 0 0 0 0 0 0 0 0 0 0 0 0 0 0 0 0 0
0 0 0 0 0 0 0 0 0 0 0 0 0 0 0 0 0 0 0 0 2 0
0 0 0 0 0 0 0 0 0 0 0 0 0 0 0 0 0 0 0 0 1 0
0 0 0 0 0 0 0 0 0 0 0 0 0 0 0 0 0 0 0 0 0 0
CIN
-0 -0 -0 -0 -0 -0 -0 -0 -0 -0 -0 -0 -0 -0 -0 -0 -0 -0 -0 -0 -0 -0
-0 -0 -0 -0 -0 -0 -0 -0 -0 -0 -0 -0 -0 -0 -0 -0 -0 -0 -0 -0 -0 -0
-0 -0 -0 -0 -0 -0 -0 -0 -0 -0 -0 -0 -0 -0 -0 -0 -0 -0 -0 -0 -0 -0
-0 -0 -0 -0 -0 -0 -0 -0 -0 -0 -0 -0 -0 -0 -0 -0 -0 -0 -0 -0 -0 -0
-0 -0 -0 -0 -0 -0 -0 -0 -0 -0 -0 -0 -0 -0 -0 -0 -0 -0 -0 -0 -0 -0
-0 -0 -0 -0 -0 -0 -0 -0 -0 -0 -0 -0 -0 -0 -0 -0 -0 -0 -0 -0 -0 -0
-0 -0 -0 -0 -0 -0 -0 -0 -0 -0 -0 -0 -0 -0 -0 -0 -0 -0 -0 -0 -0 -0
-0 -0 -0 -0 -0 -0 -0 -0 -0 -0 -0 -0 -0 -0 -0 -0 -0 -0 -0 -0 -0 -0
-0 -0 -0 -0 -0 -0 -0 -0 -0 -0 -0 -0 -0 -0 -0 -0 -0 -0 -0 -0 -0 -0
-0 -0 -0 -0 -0 -0 -0 -0 -0 -0 -0 -0 -0 -0 -0 -0 -0 -0 -0 -0 -0 -0
-0 -0 -0 -0 -0 -0 -0 -0 -0 -0 -0 -0 -0 -0 -0 -0 -0 -0 -0 -0 -0 -0
-0 -0 -0 -0 -0 -0 -0 -0 -0 -0 -0 -0 -0 -0 -0 -0 -0 -0 -0 -0 -0 -0
-0 -0 -0 -0 -0 -0 -0 -0 -0 -0 -0 -0 -0 -0 -0 -0 -0 -0 -0 -0 -1 -0
-0 -0 -0 -0 -0 -0 -0 -0 -0 -0 -0 -0 -0 -0 -0 -0 -0 -0 -0 -0 -0 -0
Wind_Speed
24 25 26 27 28 30 29 27 26 26 24 24 23 24 24 26 26 25 25 25 25 26
24 26 28 30 31 31 29 28 28 26 24 24 23 23 25 25 26 25 25 25 25 25
27 28 30 31 32 31 31 29 29 27 25 24 24 24 24 25 26 26 25 25 25 25
29 30 31 31 31 31 30 30 29 27 26 25 25 25 25 26 26 26 26 26 26 27
29 29 30 30 30 30 30 30 29 28 27 26 26 27 27 27 26 27 28 27 26 27
29 29 29 29 30 30 30 30 29 28 28 28 28 27 27 27 27 27 27 27 27 28
27 28 29 29 30 30 30 31 30 29 29 29 29 29 28 28 29 29 29 28 28 28
27 28 29 30 31 31 31 30 30 30 30 30 30 29 30 30 30 30 31 30 28 27
28 29 30 31 32 32 32 31 32 32 32 32 31 30 30 31 32 32 31 31 29 27
29 30 31 32 32 32 32 32 32 32 32 32 31 31 31 31 31 31 30 30 29 27
30 31 31 31 32 32 32 32 32 32 31 31 30 30 31 32 32 31 30 29 27 27
30 31 32 32 32 32 32 32 32 32 31 30 30 30 32 33 33 32 31 29 26 24
30 31 32 32 32 32 31 31 31 31 30 29 30 30 31 33 32 32 31 28 25 22
30 30 30 31 31 31 31 31 32 32 31 31 31 31 31 31 31 30 31 29 26 22
Wind_Direction
327 328 329 330 329 327 326 327 328 326 326 325 327 327 328 327 328 329 328 328 328 327
327 326 327 326 326 325 326 326 323 323 323 323 324 324 324 324 324 325 326 325 325 324
324 325 324 324 324 324 324 324 322 321 321 322 322 321 321 321 322 322 324 324 323 323
323 323 324 324 326 326 326 325 323 323 322 321 320 320 320 320 321 321 322 321 320 319
322 324 326 327 328 329 328 328 326 326 325 323 322 320 319 319 319 319 318 318 318 318
323 325 327 328 329 330 330 329 328 327 325 324 322 321 320 319 319 318 317 316 315 315
325 326 327 328 328 329 329 329 329 328 326 324 324 323 322 320 318 317 316 314 313 313
325 326 326 327 328 328 328 328 328 327 326 325 324 324 323 322 320 318 316 315 313 313
323 324 324 325 325 326 326 327 326 325 325 325 325 325 323 322 320 318 317 316 315 314
322 322 322 323 324 324 324 325 325 325 326 325 325 326 325 325 323 321 320 318 318 316
321 321 323 323 323 324 325 325 325 325 325 325 326 328 328 328 327 324 322 320 318 317
320 320 321 321 322 323 323 324 324 324 324 325 327 329 329 329 328 326 324 324 321 321
320 320 320 321 322 322 323 323 324 324 325 325 326 328 329 330 329 327 327 328 326 325
320 320 320 321 322 322 322 322 322 322 323 324 325 326 329 330 330 329 328 327 327 329